Regional Weather Roundup
Issued by NWS Goodland, KS

Home | Current Version | Previous Version | Text Only | Print | Product List | Glossary On
Versions: 1 2 3 4 5 6 7 8 9 10 11 12 13 14 15 16 17 18 19 20 21 22 23 24 25 26 27 28 29 30 31 32 33 34 35 36 37 38 39 40 41 42 43 44 45 46 47 48 49 50
000
ASUS43 KGLD 281608
RWRGLD

GOODLAND FORECAST AREA HOURLY WEATHER ROUNDUP
NATIONAL WEATHER SERVICE GOODLAND KS
900 AM MST SAT FEB 28 2015

...OFFICIAL OBSERVATIONS...

CITY           SKY/WX    TMP DP  RH WIND       PRES   REMARKS
GOODLAND KS    LGT SNOW  13   9  84 S12       30.12S FOG     WCI  -1
HILL CITY KS   LGT SNOW  15  10  80 S12       30.31F WCI   2
IMPERIAL NEB     N/A     15   7  70 S13       30.15R WCI   1
MCCOOK NEB     PTSUNNY   20   9  62 S10       30.24R WCI   9
AKRON CO       CLOUDY    12   7  80 S9        30.01R
BURLINGTON CO  CLOUDY    12   7  80 S14       30.06R HAZE    WCI  -3
LIMON CO       PTSUNNY    7   4  87 S5        29.97R
$$

...UNOFFICIAL OBSERVATIONS...

CITY           SKY/WX    TMP DP  RH WIND       PRES   REMARKS
COLBY KS       LGT SNOW  16  12  86 SE13      30.19F WCI   2
GOVE KS          N/A     14  32 100 MISG        N/A
LENORA KS        N/A     13  32 100 CALM        N/A
NORTON KS      LGT SNOW  16   9  73 SE12      30.27F WCI   3
SHARON SPRINGS   N/A     14  11  87 SE12G20     N/A  WCI   0
KIT CARSON CO    N/A     11   8  86 MISG        N/A
YUMA CO          N/A     13   7  75 SE7         N/A
$$


USA.gov is the U.S. government's official web portal to all federal, state and local government web resources and services.